EWG24C EDDL-EDDB

Flight info

Callsign EWG24C
Flight time 0h 54m
Altitude 35000
Route MEVEL1Z MEVEL L179 MISRI Z851 ROBEG DCT BATEL T207 OGBER
Aircraft A320/M-SDE3FGHIRWY/LB1

Departure

Time 2026-05-05 17:01
Airport Düsseldorf Airport (EDDL)

Arrival

Time 2026-05-05 17:55
Airport Berlin Brandenburg Airport (EDDB)
Time Latitude Longitude Altitude Speed Heading
2026-05-05 16:23 51.27942 6.76184 118 ft 0 kts 91°
2026-05-05 16:27 51.27942 6.76183 118 ft 0 kts 91°
2026-05-05 16:52 51.27942 6.76158 114 ft 4 kts 89°
2026-05-05 16:52 51.27941 6.76116 115 ft 4 kts 82°
2026-05-05 16:53 51.27935 6.76075 116 ft 4 kts 63°
2026-05-05 16:53 51.27920 6.76047 116 ft 3 kts
2026-05-05 16:53 51.27917 6.76047 116 ft 3 kts
2026-05-05 16:53 51.27917 6.76046 117 ft 0 kts
2026-05-05 16:56 51.27919 6.76047 118 ft 2 kts
2026-05-05 16:56 51.27948 6.76048 118 ft 7 kts 359°
2026-05-05 16:57 51.28003 6.76047 117 ft 9 kts 359°
2026-05-05 16:57 51.28047 6.76047 116 ft 0 kts
2026-05-05 16:58 51.28076 6.76046 118 ft 11 kts 354°
2026-05-05 16:58 51.28108 6.75994 118 ft 7 kts 262°
2026-05-05 16:58 51.28085 6.75925 116 ft 7 kts 236°
2026-05-05 16:59 51.28058 6.75870 114 ft 6 kts 232°
2026-05-05 16:59 51.28023 6.75798 116 ft 14 kts 231°
2026-05-05 16:59 51.27950 6.75643 118 ft 10 kts 233°
2026-05-05 16:59 51.27953 6.75553 117 ft 8 kts 311°
2026-05-05 17:00 51.28032 6.75498 114 ft 17 kts 342°
2026-05-05 17:00 51.28132 6.75564 115 ft 17 kts 58°
2026-05-05 17:00 51.28221 6.75741 118 ft 35 kts 55°
2026-05-05 17:00 51.28522 6.76360 117 ft 106 kts 53°
2026-05-05 17:01 51.29108 6.77499 241 ft 148 kts 44°
2026-05-05 17:01 51.29840 6.78727 842 ft 158 kts 44°
2026-05-05 17:01 51.30518 6.80095 1691 ft 161 kts 51°
2026-05-05 17:01 51.31209 6.81651 2145 ft 183 kts 53°
2026-05-05 17:02 51.31989 6.83407 2596 ft 204 kts 53°
2026-05-05 17:02 51.32852 6.85322 3112 ft 224 kts 54°
2026-05-05 17:02 51.33817 6.87456 3604 ft 248 kts 54°
2026-05-05 17:02 51.34936 6.89639 4387 ft 261 kts 39°
2026-05-05 17:03 51.36589 6.90867 5240 ft 270 kts
2026-05-05 17:03 51.38500 6.91194 6185 ft 275 kts
2026-05-05 17:03 51.40392 6.91646 7035 ft 282 kts
2026-05-05 17:03 51.42348 6.92208 7899 ft 288 kts 10°
2026-05-05 17:04 51.44336 6.92807 8834 ft 293 kts 10°
2026-05-05 17:04 51.46355 6.93406 9728 ft 298 kts
2026-05-05 17:04 51.48431 6.93970 10374 ft 312 kts
2026-05-05 17:04 51.50675 6.94042 10695 ft 334 kts 354°
2026-05-05 17:05 51.53007 6.93448 11330 ft 344 kts 348°
2026-05-05 17:05 51.55384 6.92763 12095 ft 350 kts 349°
2026-05-05 17:05 51.57804 6.92081 12915 ft 355 kts 349°
2026-05-05 17:05 51.60253 6.91399 13745 ft 359 kts 349°
2026-05-05 17:06 51.62731 6.90709 14494 ft 363 kts 349°
2026-05-05 17:06 51.65240 6.90077 15193 ft 368 kts 354°
2026-05-05 17:06 51.67807 6.90247 15888 ft 373 kts
2026-05-05 17:06 51.70297 6.91442 16609 ft 376 kts 24°
2026-05-05 17:07 51.72551 6.93599 17281 ft 380 kts 39°
2026-05-05 17:07 51.74413 6.96619 18010 ft 381 kts 53°
2026-05-05 17:07 51.75996 7.00073 18624 ft 385 kts 55°
2026-05-05 17:07 51.77588 7.03569 19223 ft 388 kts 54°
2026-05-05 17:08 51.78669 7.05946 19643 ft 390 kts 54°
2026-05-05 17:08 51.80809 7.10650 20435 ft 395 kts 55°
2026-05-05 17:08 51.81893 7.13032 20829 ft 397 kts 55°
2026-05-05 17:08 51.83556 7.16696 21419 ft 402 kts 55°
2026-05-05 17:09 51.85181 7.20326 21966 ft 406 kts 58°
2026-05-05 17:09 51.86582 7.24305 22535 ft 409 kts 64°
2026-05-05 17:09 51.87908 7.28391 23098 ft 413 kts 65°
2026-05-05 17:09 51.89249 7.32520 23608 ft 417 kts 65°
2026-05-05 17:10 51.90612 7.36708 24053 ft 421 kts 64°
2026-05-05 17:10 51.91978 7.40910 24506 ft 424 kts 64°
2026-05-05 17:10 51.93356 7.45152 24957 ft 427 kts 65°
2026-05-05 17:10 51.94545 7.49566 25390 ft 427 kts 74°
2026-05-05 17:11 51.95370 7.54197 25822 ft 429 kts 77°
2026-05-05 17:11 51.96161 7.58870 26242 ft 432 kts 77°
2026-05-05 17:11 51.96960 7.63579 26664 ft 434 kts 77°
2026-05-05 17:11 51.97762 7.68321 27072 ft 437 kts 77°
2026-05-05 17:12 51.98576 7.73155 27486 ft 440 kts 77°
2026-05-05 17:12 51.99374 7.77893 27876 ft 443 kts 77°
2026-05-05 17:12 52.00187 7.82723 28265 ft 445 kts 77°
2026-05-05 17:12 52.01016 7.87657 28626 ft 448 kts 77°
2026-05-05 17:13 52.01823 7.92493 29005 ft 451 kts 77°
2026-05-05 17:13 52.02639 7.97430 29289 ft 456 kts 77°
2026-05-05 17:13 52.03473 8.02492 29605 ft 459 kts 77°
2026-05-05 17:13 52.04289 8.07441 29939 ft 462 kts 77°
2026-05-05 17:14 52.05124 8.12491 30227 ft 464 kts 78°
2026-05-05 17:14 52.05962 8.17573 30505 ft 467 kts 78°
2026-05-05 17:14 52.06799 8.22682 30778 ft 469 kts 78°
2026-05-05 17:14 52.07639 8.27806 31040 ft 471 kts 78°
2026-05-05 17:15 52.08482 8.32967 31303 ft 473 kts 78°
2026-05-05 17:15 52.09323 8.38140 31541 ft 475 kts 78°
2026-05-05 17:15 52.10163 8.43339 31883 ft 474 kts 79°
2026-05-05 17:15 52.10995 8.48520 32239 ft 474 kts 79°
2026-05-05 17:16 52.11827 8.53705 32591 ft 473 kts 79°
2026-05-05 17:16 52.12656 8.58878 32946 ft 473 kts 79°
2026-05-05 17:16 52.13483 8.64053 33304 ft 472 kts 79°
2026-05-05 17:16 52.14307 8.69232 33664 ft 472 kts 80°
2026-05-05 17:17 52.15126 8.74406 34000 ft 471 kts 80°
2026-05-05 17:17 52.15942 8.79571 34313 ft 471 kts 79°
2026-05-05 17:17 52.16757 8.84739 34609 ft 471 kts 79°
2026-05-05 17:17 52.17568 8.89912 34799 ft 472 kts 79°
2026-05-05 17:18 52.19181 9.00212 34865 ft 468 kts 79°
2026-05-05 17:18 52.20800 9.10491 34866 ft 469 kts 79°
2026-05-05 17:19 52.22407 9.20786 34863 ft 468 kts 79°
2026-05-05 17:19 52.24012 9.31013 34866 ft 469 kts 78°
2026-05-05 17:20 52.25844 9.41297 34867 ft 470 kts 76°
2026-05-05 17:20 52.27744 9.51514 34863 ft 469 kts 77°
2026-05-05 17:21 52.29582 9.61668 34883 ft 469 kts 77°
2026-05-05 17:22 52.32272 9.77035 34883 ft 469 kts 77°
2026-05-05 17:22 52.34057 9.87290 34886 ft 469 kts 77°
2026-05-05 17:23 52.35868 9.97562 34877 ft 471 kts 77°
2026-05-05 17:23 52.37674 10.07885 34878 ft 473 kts 77°
2026-05-05 17:24 52.39433 10.18179 34856 ft 467 kts 78°
2026-05-05 17:24 52.41154 10.28448 34847 ft 468 kts 78°
2026-05-05 17:25 52.42883 10.38745 34833 ft 470 kts 78°
2026-05-05 17:25 52.44632 10.49086 34837 ft 471 kts 77°
2026-05-05 17:26 52.46379 10.59468 34832 ft 473 kts 78°
2026-05-05 17:26 52.48121 10.69882 34839 ft 474 kts 78°
2026-05-05 17:27 52.49855 10.80323 34847 ft 474 kts 78°
2026-05-05 17:27 52.51575 10.90764 34859 ft 474 kts 77°
2026-05-05 17:28 52.53280 11.01248 34849 ft 476 kts 78°
2026-05-05 17:28 52.54693 11.11841 34832 ft 473 kts 88°
2026-05-05 17:29 52.54990 11.22607 34840 ft 472 kts 91°
2026-05-05 17:29 52.55239 11.33388 34846 ft 473 kts 91°
2026-05-05 17:30 52.55477 11.44182 34850 ft 473 kts 92°
2026-05-05 17:30 52.55704 11.54991 34853 ft 473 kts 92°
2026-05-05 17:31 52.55919 11.65923 34862 ft 483 kts 91°
2026-05-05 17:31 52.56130 11.76980 34858 ft 485 kts 92°
2026-05-05 17:32 52.56333 11.88061 34860 ft 485 kts 92°
2026-05-05 17:32 52.57000 11.99007 34717 ft 486 kts 76°
2026-05-05 17:33 52.58964 12.09674 34291 ft 486 kts 75°
2026-05-05 17:33 52.59937 12.14912 33675 ft 485 kts 75°
2026-05-05 17:33 52.60936 12.20277 32979 ft 484 kts 75°
2026-05-05 17:33 52.61917 12.25563 32335 ft 481 kts 75°
2026-05-05 17:34 52.62877 12.30811 31680 ft 478 kts 75°
2026-05-05 17:34 52.63826 12.36044 31039 ft 475 kts 75°
2026-05-05 17:34 52.64766 12.41234 30426 ft 472 kts 75°
2026-05-05 17:34 52.65702 12.46412 29787 ft 469 kts 75°
2026-05-05 17:35 52.66629 12.51546 29078 ft 466 kts 75°
2026-05-05 17:35 52.67528 12.56545 28380 ft 454 kts 75°
2026-05-05 17:35 52.68423 12.61532 27703 ft 442 kts 75°
2026-05-05 17:35 52.69284 12.66342 27041 ft 435 kts 75°
2026-05-05 17:36 52.70131 12.71094 26392 ft 430 kts 75°
2026-05-05 17:36 52.70957 12.75740 25766 ft 425 kts 75°
2026-05-05 17:36 52.71793 12.80441 25144 ft 420 kts 75°
2026-05-05 17:36 52.72610 12.85043 24554 ft 416 kts 75°
2026-05-05 17:37 52.73419 12.89598 23965 ft 411 kts 75°
2026-05-05 17:37 52.73949 12.92585 23579 ft 408 kts 75°
2026-05-05 17:37 52.74993 12.98478 22700 ft 401 kts 75°
2026-05-05 17:37 52.75769 13.02884 22030 ft 397 kts 75°
2026-05-05 17:38 52.76528 13.07233 21377 ft 392 kts 75°
2026-05-05 17:38 52.77115 13.11577 20736 ft 385 kts 88°
2026-05-05 17:38 52.76879 13.15898 20109 ft 375 kts 109°
2026-05-05 17:38 52.75781 13.19702 19485 ft 363 kts 130°
2026-05-05 17:39 52.73993 13.22512 18887 ft 352 kts 152°
2026-05-05 17:39 52.71770 13.23990 18303 ft 342 kts 173°
2026-05-05 17:39 52.69437 13.23965 17636 ft 333 kts 195°
2026-05-05 17:39 52.67350 13.22486 16996 ft 325 kts 217°
2026-05-05 17:40 52.65825 13.19810 16391 ft 320 kts 239°
2026-05-05 17:40 52.64825 13.16534 15869 ft 320 kts 245°
2026-05-05 17:40 52.63906 13.13205 15240 ft 318 kts 245°
2026-05-05 17:40 52.63000 13.09891 14644 ft 317 kts 245°
2026-05-05 17:41 52.62098 13.06595 14040 ft 315 kts 245°
2026-05-05 17:41 52.61205 13.03327 13423 ft 313 kts 245°
2026-05-05 17:41 52.60317 13.00076 12757 ft 310 kts 245°
2026-05-05 17:41 52.59436 12.96859 12106 ft 308 kts 245°
2026-05-05 17:42 52.58553 12.93658 11472 ft 305 kts 245°
2026-05-05 17:42 52.57675 12.90497 10850 ft 303 kts 245°
2026-05-05 17:42 52.56799 12.87356 10239 ft 301 kts 245°
2026-05-05 17:42 52.55925 12.84245 9631 ft 298 kts 245°
2026-05-05 17:43 52.55057 12.81169 8960 ft 296 kts 244°
2026-05-05 17:43 52.53873 12.78454 8317 ft 293 kts 221°
2026-05-05 17:43 52.52103 12.76854 7681 ft 292 kts 196°
2026-05-05 17:43 52.50110 12.76695 7077 ft 287 kts 171°
2026-05-05 17:44 52.48243 12.77480 6877 ft 270 kts 165°
2026-05-05 17:44 52.46446 12.78329 6847 ft 268 kts 165°
2026-05-05 17:44 52.44655 12.79181 6846 ft 267 kts 165°
2026-05-05 17:44 52.42865 12.80033 6679 ft 269 kts 165°
2026-05-05 17:45 52.41074 12.80881 6348 ft 266 kts 165°
2026-05-05 17:45 52.39298 12.81717 5993 ft 265 kts 165°
2026-05-05 17:45 52.37541 12.82544 5631 ft 261 kts 165°
2026-05-05 17:45 52.35844 12.83342 5274 ft 247 kts 165°
2026-05-05 17:46 52.34221 12.84097 5034 ft 240 kts 165°
2026-05-05 17:46 52.32622 12.84869 5007 ft 239 kts 159°
2026-05-05 17:46 52.31295 12.86456 5009 ft 240 kts 127°
2026-05-05 17:46 52.30451 12.88823 4939 ft 242 kts 116°
2026-05-05 17:47 52.29724 12.91293 4736 ft 238 kts 115°
2026-05-05 17:47 52.29020 12.93715 4588 ft 231 kts 115°
2026-05-05 17:47 52.28348 12.96025 4495 ft 229 kts 115°
2026-05-05 17:47 52.27730 12.98440 4290 ft 231 kts 102°
2026-05-05 17:48 52.27479 13.01028 4090 ft 231 kts 96°
2026-05-05 17:48 52.27307 13.03630 3885 ft 230 kts 95°
2026-05-05 17:48 52.27140 13.06217 3681 ft 229 kts 95°
2026-05-05 17:48 52.26970 13.08788 3488 ft 227 kts 95°
2026-05-05 17:49 52.26799 13.11336 3285 ft 227 kts 95°
2026-05-05 17:49 52.26720 13.13869 3100 ft 219 kts 80°
2026-05-05 17:49 52.27175 13.16188 2991 ft 211 kts 68°
2026-05-05 17:49 52.27708 13.18334 2966 ft 197 kts 67°
2026-05-05 17:50 52.28201 13.20355 2933 ft 188 kts 64°
2026-05-05 17:50 52.28524 13.21698 2931 ft 187 kts 67°
2026-05-05 17:50 52.28549 13.21802 2935 ft 186 kts 68°
2026-05-05 17:50 52.29019 13.23750 2991 ft 184 kts 68°
2026-05-05 17:51 52.29484 13.25698 2851 ft 184 kts 68°
2026-05-05 17:51 52.29943 13.27625 2612 ft 179 kts 68°
2026-05-05 17:51 52.30403 13.29492 2410 ft 174 kts 68°
2026-05-05 17:51 52.30837 13.31308 2170 ft 170 kts 68°
2026-05-05 17:52 52.31116 13.32498 1998 ft 168 kts 68°
2026-05-05 17:52 52.31533 13.34255 1751 ft 165 kts 67°
2026-05-05 17:52 52.31948 13.35988 1548 ft 162 kts 68°
2026-05-05 17:52 52.32354 13.37653 1346 ft 154 kts 67°
2026-05-05 17:53 52.32720 13.39208 1178 ft 139 kts 66°
2026-05-05 17:53 52.33063 13.40649 927 ft 133 kts 66°
2026-05-05 17:53 52.33391 13.42010 776 ft 127 kts 69°
2026-05-05 17:53 52.33714 13.43350 617 ft 125 kts 66°
2026-05-05 17:54 52.34038 13.44703 433 ft 127 kts 69°
2026-05-05 17:54 52.34351 13.46032 298 ft 125 kts 68°
2026-05-05 17:54 52.34664 13.47354 167 ft 123 kts 68°
2026-05-05 17:54 52.34936 13.48488 155 ft 83 kts 67°
2026-05-05 17:55 52.35101 13.49189 154 ft 56 kts 72°
2026-05-05 17:55 52.35219 13.49690 154 ft 43 kts 63°
2026-05-05 17:55 52.35376 13.49996 155 ft 24 kts 44°
2026-05-05 17:55 52.35474 13.50124 157 ft 0 kts 41°